DECAYED

CZ-4 DEB, 26650 (Decayed)

Orbit data source: Space-Track

CZ-4 DEB, 26650 was space debris in SSO originally from a launch on Thu, 14 Oct 1999 UTC launched from the Taiyaun Space Center, China (TSC). Debris objects in space refer to the collection of defunct objects orbiting the Earth. Examples of debris include non-operational satellites, rocket bodies, and fragments generated from explosions, collisions, or faulty payload assembly.

Loading next visibility...
Identifier
26650, 1999-057LG
Orbit
Decayed
Country
Flag of CNCN / PRC
Related business
Manufacturer
Unknown
Mission
Decayed spacecraft
Bus & Motor
Unknown
Mass
Unknown
Launch date (UTC)
1999-10-14 (27 years ago)
Launch vehicle
Unknown
Launch site
Taiyaun Space Center, China (TSC)
Object type
Payload
Rocket body
Debris
Shape & HBR
Unknown shape, 0.1 m
Radar Cross Section
Small (<0.1 m²)

Expand to show TLE details & history
Last TLE update: 7 months ago

TLE from 7 months ago
0 CZ-4 DEB
1 26650U 99057LG  26060.04032436  .03088134  25319-1  31647-2 0  9996
2 26650  98.5147  97.5466 0005775 227.0749 133.0050 16.15531542383545
Epoch: 2026-03-01T00:58Z
TLE epoch observation values (Epoch: 2026-03-01T00:58:04.024Z)
Latitude
-0.00003°
Longitude
-75.82396°
Altitude
237.501 km
Speed
7.763 km/s
True Right ascension
06h 30m 11s
True Declination
0° 00' 00"
Sunlit
Object was in full shadow at epoch
Visualization orbit readout
Latitude
Unknown
Longitude
Unknown
Altitude
Unknown
Speed
Unknown
Apparent Right ascension
Unknown
Apparent Declination
Unknown
Sunlit
N/A
Visualization observer readout
Local Sidereal Time
11:41:16
Azimuth
Unknown
Elevation
Unknown
Doppler factor
Unknown
Orbital elements
Apogee altitude
232.42 km
Perigee altitude
224.789 km
Semi-major axis
6,606.742 km
Eccentricity
0.00058
Inclination
98.5147°
RAAN
97.5466°
Arg. of periapsis
227.0749°
True anomaly
133.05337°
Mean anomaly
133.005°
Eccentric anomaly
133.02919°
Mean motion
4.04168 °/min
Orbital period
89.07 mins
BSTAR
0.0031647
Loading maneuver chart data...
Computing Atmospheric mass density...
Loading historical data...
Loading historical data...
Loading historical data...
Loading historical data...
Loading historical data...
Loading historical data...
Loading historical data...

Documentation

Showing up to 5 results
|